Weather in Chernaya

Russia / Nenets Autonomous Okrug     68°35′15″N   56°34′53″E
temp.,
°C
wind,
m/s
gust,
m/s
humid.,
%
clouds,
%
prec.,
mm/h
press.,
hPa
HPBL,
m
12 august, fri
fri1200:00+13ssw91595100 1.8 1001465
03:00+13wsw71197100 6.9 1000605
06:00+11wnw589045 0.8 1000480
09:00+12wnw687740 0.8 1001666
12:00+15wnw67615 0.0 1001962
15:00+15wnw575791 0.0 10011047
18:00+11w5109196 0.8 1002457
21:00+9w71293100 0.8 1002458
13 august, sat
sat1300:00+9w7129258 0.1 1002555
03:00+9w9149278 0.9 1002689
06:00+10wsw81392100 0.1 1001882
09:00+10w81292100 0.9 1001739
12:00+9w91391100 0.8 1001823
15:00+9w101594100 1.4 1001871
18:00+9wnw101492100 0.6 1003831
21:00+8nw101590100 0.9 1005910
14 august, sun
sun1400:00+8nw101589100 0.3 1007895
03:00+7nw10148390 0.5 1009850
06:00+7nw91382100 0.3 10111006
09:00+8nw91275100 0.5 10121352
12:00+9nw91273100 0.1 10141362
15:00+9nw81175100 0.3 10161312
18:00+8nw7117594 0.1 10161148
21:00+6wnw599434 0.2 1017229
15 august, mon
mon1500:00+9w51089100 0.0 1016399
03:00+7wsw4893100 0.0 1016153
06:00+9sw51076100 0.0 1016295
09:00+9sw5991100 0.9 1015337
12:00+12w798567 0.8 1014679
15:00+12wnw710766 1.0 1015902
18:00+10wnw711885 0.0 1015652
21:00+8wnw7129434 0.0 1016376
16 august, tue
tue1600:00+9nw8129561 0.0 1017461
03:00+9nw7119369 0.1 1018469
06:00+10nw799162 0.1 1020603
09:00+9nw8987100 0.4 1021663
12:00+9nw7876100 0.1 1023870
15:00+9nw7871100 0.1 1024989
18:00+9wnw577393 0.0 1023806
21:00+6w3391100 0.0 102353